Home > Weather > Port Said > Past weeks

Flag for Egypt Weather for the Past 2 Weeks in Port Said, Egypt

Now
73 °F

Scattered clouds.


Feels Like: 75 °F
Forecast: 69 / 80 °F
Wind: 9 mph from East

Location: Port Said Airport

Current Time: Apr 30, 2016 at 11:57:05 AM

Latest Report: Apr 30, 2016 at 10:00 AM


Visibility: N/A

Pressure: 29.98 "Hg

Humidity: 74%

Dew Point: 64 °F

Location of Port SaidLocation

Historic Weather in Port Said — Graph

°F

Port Said Temperature Yesterday

Maximum temperature yesterday: 73 °F (at 12:00 PM)
Minimum temperature yesterday: 64 °F (at 4:00 AM)
Average temperature yesterday: 69 °F

High & Low Weather Summary for the Past Weeks

 TemperatureHumidityPressure
High99 °F (Apr 26, 1:00 PM)94% (Apr 18, 1:00 AM)30.12 "Hg (Apr 18, 1:00 AM)
Low63 °F (Apr 28, 6:00 AM)24% (Apr 26, 1:00 PM)29.56 "Hg (Apr 24, 9:00 PM)
Average72 °F74%29.94 "Hg
* Reported Apr 15 10:00 AM — Apr 30 10:00 AM, Port Said, Weather by CustomWeather, © 2016

Note: Actual official high and low records may vary slightly from our data, if they occured in-between our weather recording intervals... More about our weather records

Advertising

Port Said Weather History for the Previous 24 Hours

Scroll right to see more
 ConditionsComfort  
Time TempWeatherWind HumidityBarometerVisibility
10:00 AM
Sat, Apr 30
73 °FScattered clouds.9 mph74%29.98 "HgN/A
9:00 AM73 °FScattered clouds.7 mph69%29.98 "HgN/A
8:00 AM72 °FClear.3 mph73%29.95 "Hg4 mi
7:00 AM68 °FFog.3 mph83%29.95 "Hg2 mi
6:00 AM64 °FSunny.8 mph94%29.92 "Hg10 mi
5:00 AM66 °FClear.7 mph88%29.92 "Hg10 mi
4:00 AM68 °FClear.8 mph83%29.95 "Hg10 mi
3:00 AM68 °FClear.7 mph83%29.95 "Hg10 mi
2:00 AM68 °FClear.8 mph83%29.95 "Hg10 mi
12:00 AM68 °FClear.7 mph78%29.98 "Hg10 mi
11:00 PM
Fri, Apr 29
68 °FClear.7 mph78%29.98 "Hg10 mi
10:00 PM68 °FMild.9 mph78%29.98 "HgN/A
9:00 PM70 °FClear.8 mph73%29.98 "Hg10 mi
8:00 PM70 °FClear.6 mph73%29.98 "Hg10 mi
7:00 PM70 °FClear.12 mph73%29.98 "Hg10 mi
6:00 PM70 °FSunny.14 mph73%29.98 "Hg10 mi
5:00 PM72 °FSunny.13 mph65%29.98 "Hg10 mi
4:00 PM72 °FSunny.13 mph65%29.98 "Hg10 mi
3:00 PM72 °FSunny.12 mph69%30.01 "Hg10 mi
2:00 PM73 °FSunny.12 mph61%30.01 "Hg10 mi
1:00 PM73 °FSunny.10 mph57%30.04 "Hg10 mi
12:00 PM73 °FSunny.8 mph61%30.04 "Hg10 mi
11:00 AM72 °FSunny.3 mph65%30.04 "Hg10 mi
Weather by CustomWeather, © 2016

See weather overviewHow to use our weather pages